Temp
-13 -12 -12 -12 -12 -12 -12 -12 -12 -12 -12 -12 -13 -13 -13 -13 -12 -12 -12 -12 -13 -13 -13 -13 -13 -13 -13 -13 -13 -13 -13 -12 -12 -12 -12 -12 -12 -12 -12 -12 -11 -11
-13 -12 -12 -12 -12 -13 -13 -12 -12 -12 -12 -12 -13 -13 -13 -13 -12 -12 -12 -12 -12 -13 -13 -13 -13 -13 -13 -13 -13 -13 -13 -12 -12 -12 -12 -12 -12 -12 -12 -12 -11 -11
-13 -13 -13 -12 -13 -13 -13 -12 -12 -12 -12 -12 -13 -12 -12 -13 -12 -12 -12 -12 -12 -12 -12 -13 -13 -13 -13 -13 -13 -13 -13 -13 -12 -12 -12 -12 -12 -12 -12 -12 -12 -11
-13 -13 -13 -13 -13 -13 -13 -13 -12 -12 -12 -12 -12 -12 -12 -13 -12 -12 -12 -12 -12 -12 -13 -13 -13 -12 -13 -13 -13 -13 -13 -13 -12 -12 -12 -12 -12 -12 -12 -12 -12 -11
-13 -13 -13 -14 -13 -13 -12 -12 -12 -12 -12 -12 -12 -12 -12 -12 -12 -12 -12 -12 -13 -13 -13 -12 -12 -12 -12 -12 -13 -13 -13 -13 -13 -13 -13 -13 -13 -12 -12 -12 -12 -12
-14 -14 -13 -14 -14 -13 -12 -12 -12 -12 -12 -12 -12 -12 -12 -12 -12 -12 -13 -13 -13 -13 -13 -12 -12 -12 -12 -12 -12 -12 -13 -13 -13 -13 -13 -13 -13 -12 -12 -12 -12 -12
-15 -14 -13 -13 -14 -14 -13 -13 -12 -12 -12 -12 -12 -12 -12 -12 -11 -12 -12 -13 -13 -13 -13 -13 -12 -12 -13 -12 -12 -12 -12 -13 -13 -13 -13 -13 -12 -12 -12 -12 -12 -12
-15 -15 -14 -13 -14 -14 -14 -14 -13 -13 -13 -12 -12 -12 -12 -12 -12 -12 -13 -13 -13 -13 -13 -13 -13 -12 -13 -13 -12 -12 -12 -12 -13 -13 -13 -13 -13 -13 -12 -12 -12 -12
-16 -15 -14 -13 -13 -14 -14 -14 -14 -13 -13 -13 -12 -12 -12 -12 -12 -12 -13 -13 -13 -12 -12 -12 -12 -12 -13 -13 -12 -12 -12 -12 -13 -13 -13 -13 -13 -13 -12 -12 -12 -12
-16 -15 -14 -14 -14 -14 -14 -14 -14 -13 -13 -13 -13 -13 -12 -12 -12 -12 -13 -13 -13 -13 -12 -12 -12 -12 -12 -12 -12 -12 -11 -11 -12 -13 -13 -13 -13 -13 -12 -12 -12 -12
-16 -16 -14 -14 -15 -15 -14 -14 -14 -14 -13 -13 -13 -13 -13 -13 -13 -12 -13 -13 -13 -13 -12 -12 -12 -12 -12 -12 -12 -12 -12 -12 -12 -12 -13 -13 -13 -13 -12 -12 -12 -12
-17 -16 -15 -14 -15 -15 -15 -14 -14 -14 -14 -13 -13 -13 -13 -13 -13 -13 -13 -13 -13 -13 -12 -12 -12 -12 -12 -12 -12 -12 -12 -12 -11 -12 -13 -13 -13 -13 -12 -12 -12 -12
-17 -16 -15 -15 -15 -15 -15 -15 -14 -14 -14 -14 -13 -13 -13 -13 -12 -12 -13 -13 -13 -13 -13 -12 -12 -12 -12 -12 -12 -12 -12 -12 -12 -12 -12 -13 -13 -12 -12 -12 -12 -12
-17 -16 -16 -15 -15 -16 -15 -15 -15 -15 -14 -14 -13 -13 -13 -13 -13 -12 -13 -13 -13 -13 -13 -12 -12 -12 -12 -12 -12 -12 -12 -12 -12 -12 -12 -12 -12 -12 -12 -12 -12 -12
-17 -17 -16 -16 -16 -16 -15 -15 -15 -14 -14 -14 -13 -13 -13 -13 -13 -13 -13 -13 -13 -13 -13 -12 -12 -12 -12 -12 -12 -12 -12 -12 -12 -12 -12 -12 -12 -12 -12 -12 -12 -12
-17 -17 -17 -16 -16 -16 -15 -15 -14 -14 -14 -14 -13 -13 -13 -13 -13 -13 -13 -13 -12 -12 -13 -13 -12 -13 -13 -12 -12 -12 -12 -12 -12 -12 -12 -12 -12 -12 -12 -12 -12 -12
-17 -17 -17 -16 -16 -16 -15 -15 -14 -14 -14 -14 -14 -13 -13 -13 -13 -13 -13 -13 -12 -12 -13 -13 -13 -13 -13 -13 -12 -12 -12 -12 -12 -12 -12 -12 -12 -12 -12 -12 -12 -12
-17 -17 -16 -16 -16 -16 -16 -15 -15 -15 -14 -14 -14 -14 -14 -14 -13 -13 -13 -13 -13 -13 -13 -13 -13 -12 -12 -12 -12 -12 -12 -12 -12 -12 -12 -12 -12 -12 -12 -12 -12 -12
-18 -17 -17 -16 -16 -16 -16 -16 -15 -15 -14 -14 -14 -14 -14 -14 -13 -13 -13 -13 -13 -13 -13 -13 -13 -12 -12 -12 -12 -13 -13 -12 -13 -12 -12 -12 -12 -12 -12 -12 -12 -12
-18 -17 -17 -16 -16 -16 -16 -16 -16 -15 -15 -14 -14 -14 -14 -14 -13 -13 -13 -13 -13 -13 -13 -13 -13 -12 -12 -12 -12 -13 -13 -13 -13 -13 -13 -13 -13 -12 -12 -12 -12 -12
-17 -17 -17 -16 -16 -16 -16 -16 -16 -16 -15 -15 -14 -14 -14 -14 -13 -13 -13 -13 -13 -13 -13 -13 -13 -12 -12 -12 -12 -13 -13 -13 -13 -13 -13 -13 -13 -12 -12 -12 -12 -12
-17 -17 -17 -16 -16 -16 -16 -16 -16 -15 -15 -15 -14 -14 -14 -14 -13 -13 -13 -13 -13 -13 -13 -13 -12 -13 -13 -13 -13 -13 -13 -13 -13 -13 -13 -13 -13 -13 -12 -12 -12 -12
-18 -17 -17 -16 -16 -15 -15 -15 -15 -15 -14 -14 -14 -14 -14 -14 -13 -13 -13 -13 -13 -13 -13 -13 -13 -13 -13 -13 -13 -13 -13 -13 -13 -13 -13 -13 -13 -13 -12 -12 -12 -12
-18 -18 -17 -17 -16 -16 -15 -14 -14 -14 -14 -13 -13 -13 -13 -14 -13 -13 -13 -13 -13 -13 -13 -14 -14 -14 -13 -13 -13 -13 -13 -13 -13 -13 -13 -13 -13 -13 -13 -12 -12 -12
-18 -18 -18 -17 -17 -17 -16 -15 -14 -14 -13 -13 -12 -12 -12 -13 -13 -13 -13 -13 -13 -13 -13 -13 -14 -14 -13 -13 -13 -13 -13 -13 -13 -13 -13 -13 -13 -13 -13 -13 -13 -13
-19 -18 -18 -18 -17 -17 -17 -16 -16 -15 -14 -13 -12 -12 -12 -12 -12 -12 -12 -13 -13 -13 -13 -13 -13 -14 -14 -13 -13 -13 -13 -13 -13 -13 -13 -13 -13 -13 -13 -13 -13 -13
Height
5753 5755 5757 5759 5761 5765 5771 5777 5783 5786 5789 5793 5797 5800 5803 5806 5808 5811 5813 5815 5817 5820 5822 5824 5825 5826 5827 5828 5829 5831 5832 5834 5835 5837 5838 5840 5841 5842 5843 5843 5844 5844
5747 5750 5752 5753 5755 5759 5765 5771 5777 5781 5785 5788 5792 5794 5798 5802 5804 5806 5808 5810 5812 5814 5817 5819 5821 5822 5822 5823 5825 5826 5827 5829 5831 5833 5835 5837 5838 5840 5840 5841 5842 5842
5742 5746 5747 5748 5751 5755 5761 5766 5771 5775 5779 5782 5786 5790 5794 5797 5800 5801 5803 5804 5807 5809 5812 5814 5815 5816 5817 5819 5820 5821 5823 5824 5826 5829 5831 5833 5835 5837 5838 5839 5839 5840
5737 5741 5743 5744 5747 5751 5756 5761 5766 5770 5773 5777 5781 5785 5788 5791 5794 5795 5796 5797 5799 5802 5805 5807 5809 5810 5811 5813 5815 5817 5818 5820 5822 5825 5827 5830 5832 5834 5835 5836 5837 5837
5731 5735 5738 5740 5743 5747 5752 5756 5760 5765 5769 5773 5776 5779 5782 5785 5787 5788 5790 5792 5793 5795 5798 5801 5803 5805 5807 5809 5811 5813 5814 5816 5818 5821 5824 5826 5828 5830 5832 5833 5834 5834
5724 5727 5733 5737 5739 5743 5748 5752 5755 5760 5763 5767 5770 5773 5777 5780 5782 5784 5787 5790 5792 5793 5794 5796 5798 5801 5805 5807 5808 5809 5810 5812 5814 5817 5820 5823 5825 5827 5828 5830 5831 5831
5717 5721 5727 5733 5735 5738 5742 5746 5750 5754 5756 5760 5764 5768 5771 5774 5776 5779 5782 5785 5788 5790 5793 5794 5795 5799 5802 5804 5805 5806 5806 5808 5810 5813 5816 5819 5821 5823 5825 5826 5827 5828
5712 5716 5722 5727 5730 5733 5736 5740 5745 5748 5750 5754 5759 5763 5765 5767 5770 5772 5775 5778 5783 5788 5792 5794 5796 5798 5801 5802 5803 5803 5803 5804 5807 5810 5812 5815 5817 5819 5821 5823 5823 5824
5708 5712 5716 5721 5726 5730 5733 5736 5739 5742 5745 5750 5754 5757 5759 5761 5764 5767 5771 5775 5779 5783 5787 5791 5794 5797 5799 5802 5802 5801 5800 5801 5803 5806 5808 5810 5813 5815 5817 5819 5820 5821
5704 5707 5711 5716 5722 5727 5730 5732 5735 5737 5741 5745 5748 5751 5754 5756 5760 5764 5768 5772 5775 5779 5782 5786 5789 5792 5796 5799 5800 5799 5798 5798 5798 5800 5803 5806 5808 5811 5813 5815 5817 5818
5699 5702 5706 5710 5716 5722 5725 5727 5731 5733 5737 5740 5743 5746 5749 5752 5757 5761 5765 5769 5773 5776 5779 5783 5786 5788 5791 5793 5794 5795 5796 5796 5794 5795 5797 5801 5804 5807 5809 5811 5813 5815
5693 5697 5701 5705 5710 5716 5719 5721 5726 5729 5732 5736 5740 5743 5745 5749 5754 5758 5762 5766 5769 5773 5776 5779 5781 5782 5785 5787 5789 5791 5794 5794 5792 5792 5793 5797 5800 5803 5806 5808 5810 5812
5688 5692 5696 5699 5704 5710 5713 5716 5720 5724 5727 5731 5735 5738 5741 5745 5750 5754 5758 5761 5765 5768 5770 5773 5775 5777 5780 5783 5785 5788 5790 5791 5791 5790 5791 5794 5798 5800 5803 5805 5807 5810
5683 5687 5690 5693 5698 5703 5708 5711 5715 5719 5723 5727 5731 5733 5737 5741 5744 5749 5753 5756 5759 5762 5764 5768 5771 5772 5776 5780 5781 5783 5785 5788 5789 5788 5789 5792 5795 5798 5800 5803 5805 5807
5678 5681 5685 5688 5691 5697 5702 5707 5710 5713 5718 5722 5725 5728 5731 5735 5739 5743 5747 5750 5753 5756 5758 5762 5766 5768 5772 5775 5777 5778 5782 5785 5786 5785 5786 5789 5792 5795 5798 5800 5802 5804
5672 5676 5679 5682 5685 5690 5696 5701 5705 5708 5712 5715 5718 5722 5726 5729 5733 5737 5741 5744 5746 5750 5753 5756 5760 5764 5768 5771 5773 5775 5778 5782 5781 5779 5780 5784 5788 5791 5794 5797 5799 5801
5666 5670 5674 5677 5680 5685 5690 5695 5699 5703 5707 5709 5712 5715 5720 5724 5728 5731 5735 5739 5742 5745 5748 5751 5754 5758 5763 5767 5770 5771 5774 5776 5775 5773 5774 5777 5781 5785 5789 5792 5794 5796
5660 5664 5668 5672 5676 5679 5684 5689 5693 5697 5701 5704 5706 5710 5714 5718 5722 5726 5730 5734 5737 5740 5743 5746 5748 5752 5757 5761 5765 5767 5768 5769 5771 5771 5771 5773 5776 5779 5783 5786 5789 5791
5654 5658 5663 5667 5671 5675 5678 5683 5687 5691 5696 5699 5702 5705 5709 5713 5717 5721 5724 5728 5732 5735 5737 5741 5744 5748 5751 5754 5757 5761 5762 5763 5766 5769 5770 5771 5774 5777 5780 5782 5784 5786
5649 5653 5657 5662 5667 5670 5673 5677 5681 5686 5690 5694 5697 5700 5704 5708 5713 5717 5719 5722 5726 5729 5732 5736 5740 5744 5746 5748 5750 5754 5755 5757 5761 5764 5766 5768 5771 5774 5776 5779 5780 5782
5645 5649 5653 5657 5662 5666 5669 5672 5676 5680 5684 5689 5692 5696 5700 5704 5708 5712 5714 5717 5721 5724 5727 5731 5735 5739 5741 5743 5746 5748 5750 5752 5756 5758 5760 5763 5766 5769 5772 5774 5776 5777
5642 5645 5649 5653 5658 5661 5664 5668 5672 5675 5680 5684 5687 5691 5695 5699 5703 5707 5710 5713 5716 5719 5722 5726 5729 5733 5736 5738 5741 5743 5745 5747 5750 5753 5755 5758 5761 5765 5767 5769 5771 5772
5636 5638 5642 5648 5653 5657 5661 5666 5668 5671 5675 5679 5682 5685 5688 5693 5697 5701 5703 5707 5710 5714 5718 5721 5724 5728 5731 5734 5736 5738 5740 5742 5744 5747 5751 5754 5757 5760 5762 5765 5766 5768
5630 5633 5636 5641 5646 5651 5656 5661 5665 5668 5671 5675 5678 5680 5683 5686 5691 5694 5697 5700 5704 5709 5713 5716 5719 5723 5726 5728 5731 5733 5734 5736 5739 5742 5746 5749 5752 5754 5757 5759 5762 5764
5626 5629 5632 5636 5640 5645 5649 5654 5659 5664 5667 5670 5673 5676 5678 5680 5683 5686 5690 5693 5697 5701 5705 5709 5713 5716 5720 5722 5725 5726 5728 5731 5734 5737 5740 5743 5746 5749 5752 5754 5756 5759
5622 5624 5627 5629 5633 5637 5641 5646 5652 5657 5660 5663 5667 5670 5673 5675 5676 5680 5684 5686 5689 5693 5697 5701 5705 5708 5712 5716 5719 5720 5722 5725 5728 5731 5734 5737 5740 5743 5746 5749 5751 5754
Wind_Speed
57 59 59 56 61 68 70 69 63 59 59 57 55 54 52 51 50 47 45 44 42 42 41 41 40 39 38 38 38 36 32 29 25 21 18 15 13 12 11 9 9 8
51 53 56 54 59 67 68 66 65 62 61 59 57 56 54 54 52 50 48 46 45 44 43 43 42 41 40 39 40 39 36 33 30 25 22 19 16 15 14 12 12 11
52 48 51 53 57 65 67 65 65 65 63 61 59 56 55 55 55 53 51 49 47 46 45 44 44 43 41 40 40 40 39 37 34 30 26 23 19 18 17 15 14 14
59 48 42 45 53 61 65 65 66 65 64 63 59 57 56 56 57 56 54 53 51 50 49 47 46 45 43 41 40 40 40 39 37 33 29 27 23 21 20 18 17 17
66 59 45 38 44 54 57 59 62 64 63 62 59 59 59 58 58 59 57 56 55 54 52 50 48 47 45 42 39 38 39 40 39 36 33 30 27 25 23 20 19 19
65 68 59 44 38 43 46 48 54 59 62 61 57 58 62 59 57 59 59 57 56 55 54 53 52 49 47 44 40 36 36 38 40 39 36 33 30 28 25 22 21 21
62 66 65 55 43 41 41 42 49 55 59 61 57 57 62 61 59 60 61 60 58 56 55 55 54 50 46 44 41 37 34 35 39 41 40 36 33 30 28 25 23 23
59 61 64 61 52 45 41 40 45 50 53 58 59 59 63 64 63 63 64 63 61 57 55 54 52 49 45 43 41 37 34 32 34 39 41 40 36 32 30 28 26 26
56 58 62 65 58 51 46 41 42 46 48 53 58 61 64 66 65 65 64 64 61 56 54 54 52 49 45 41 39 37 35 31 30 34 40 42 39 35 33 31 29 28
54 56 62 66 59 52 50 46 41 44 48 52 56 60 64 65 64 62 62 63 61 56 53 53 52 50 46 42 40 40 38 34 32 35 40 44 42 39 36 33 31 30
53 55 62 66 59 50 50 48 42 44 49 51 54 58 63 63 60 58 59 60 59 56 53 52 52 51 48 45 44 43 40 37 35 36 41 45 44 40 38 35 33 32
52 54 60 65 61 54 52 49 46 47 50 51 53 57 61 61 58 56 56 58 59 57 53 51 52 53 51 48 46 44 41 38 36 37 41 44 44 41 39 37 35 33
53 54 57 61 61 57 55 52 50 50 50 51 55 61 62 59 56 55 54 55 58 60 58 55 54 55 54 51 47 44 42 39 36 36 40 42 43 42 40 38 36 34
54 54 55 58 58 57 58 57 54 53 51 49 53 61 64 60 58 56 55 55 57 60 61 60 59 58 55 52 51 48 45 43 38 36 38 41 42 42 41 39 37 35
55 54 54 56 57 57 60 61 59 57 55 51 51 57 60 60 59 59 57 58 60 61 62 62 61 60 56 54 54 52 48 44 40 36 36 39 41 42 42 41 39 36
55 56 55 56 57 58 61 63 62 60 58 55 52 55 57 58 60 60 60 60 62 62 63 62 62 63 59 55 54 51 46 44 43 39 37 38 40 41 41 40 39 36
55 56 57 57 58 58 61 63 64 63 61 58 54 53 56 59 61 61 61 61 61 62 63 62 62 63 62 58 54 49 44 43 43 43 41 41 41 41 41 40 38 37
54 57 57 58 58 59 60 63 65 64 63 62 59 56 55 57 59 61 61 61 60 61 64 64 62 61 61 62 61 58 52 46 44 43 44 44 44 44 43 41 40 39
52 57 58 58 58 59 60 62 65 66 64 64 64 62 58 57 57 58 61 61 60 62 66 66 64 61 59 62 64 64 61 56 50 47 46 46 46 45 45 44 43 41
48 54 58 59 58 59 60 61 64 66 66 66 67 66 63 61 58 56 58 61 61 62 65 66 65 62 61 62 62 62 62 61 56 52 50 49 48 47 47 47 46 45
47 52 56 58 58 58 60 62 64 66 66 67 69 69 67 64 61 58 57 58 59 60 61 62 63 62 62 62 60 59 61 61 59 56 54 52 51 50 50 50 50 48
44 51 55 58 60 61 61 61 63 67 68 69 70 70 69 67 64 62 60 57 58 58 56 57 59 60 60 59 58 58 59 60 60 59 57 55 53 53 53 53 53 52
41 47 53 56 59 61 63 63 65 67 69 70 72 72 71 69 67 66 64 61 59 57 52 52 55 57 57 56 55 57 60 61 61 59 58 56 55 56 56 55 55 54
39 43 49 53 55 56 58 62 66 69 71 73 74 74 74 72 70 69 69 67 64 61 56 52 52 54 55 54 52 54 59 63 63 61 59 57 57 58 58 57 57 56
38 40 45 51 54 54 54 56 58 62 68 74 77 78 78 77 74 73 72 70 68 67 65 62 58 56 55 53 51 52 56 60 62 62 60 58 58 58 59 59 58 57
38 41 44 47 50 52 54 56 54 52 56 65 73 77 80 80 79 77 76 74 72 71 70 68 66 64 61 56 52 51 52 55 58 61 61 60 59 59 60 61 60 58
Wind_Direction
236 239 241 236 222 216 217 218 219 221 222 224 225 223 219 214 210 208 211 214 215 217 219 222 225 225 223 221 218 216 214 212 212 211 210 213 221 229 237 245 253 261
231 236 233 225 216 213 214 216 218 221 222 224 225 224 221 216 212 209 209 212 214 215 217 219 222 223 223 221 218 215 213 213 213 212 212 214 220 228 234 240 247 254
224 226 220 213 211 213 214 216 217 219 222 223 224 225 222 218 215 211 210 211 213 215 217 218 220 222 222 221 219 216 214 214 213 213 213 215 220 227 232 237 244 251
221 220 217 211 209 211 214 215 216 218 221 222 223 224 221 217 216 214 211 211 211 213 216 218 220 222 221 219 218 216 214 214 214 215 216 217 220 226 231 235 242 249
223 221 222 217 209 208 211 214 216 218 220 222 223 221 219 217 216 215 214 213 214 214 215 217 221 223 223 221 217 214 214 215 215 216 218 219 220 226 231 234 239 246
230 226 225 223 214 209 211 214 215 217 218 221 222 218 215 217 218 217 217 218 219 220 218 218 221 224 224 222 218 214 214 214 215 217 219 220 221 226 231 234 237 244
235 231 226 225 224 217 213 213 214 216 218 220 221 217 215 218 220 219 217 218 221 224 223 222 224 225 225 223 219 217 215 213 215 218 219 220 222 225 230 233 236 241
237 235 228 226 227 224 219 218 217 217 218 219 220 219 217 219 221 220 218 217 220 224 225 225 227 227 227 224 220 218 217 212 214 219 220 221 222 225 228 232 235 239
236 236 230 226 227 228 228 226 220 216 217 219 219 219 219 219 221 222 220 218 219 223 225 226 227 227 229 227 223 223 221 218 218 222 221 220 221 223 227 230 234 238
234 235 230 228 228 228 229 229 223 218 218 219 219 219 220 220 221 222 222 219 219 222 225 225 225 226 228 228 228 230 226 223 225 225 221 218 219 222 226 229 233 238
232 233 231 229 227 224 226 227 225 222 221 220 220 218 218 219 220 222 223 222 221 224 226 226 225 226 227 227 230 231 227 226 228 224 217 215 216 221 226 229 232 237
229 231 231 231 228 224 224 226 224 224 225 222 220 218 216 218 220 223 225 224 223 225 227 228 228 227 226 226 229 229 226 226 226 219 214 213 216 221 226 229 232 236
227 229 230 232 230 225 224 225 223 225 229 226 221 219 219 220 222 223 226 227 226 227 229 230 231 231 229 227 228 227 224 223 222 218 215 215 218 223 227 230 233 236
225 227 229 231 230 225 222 224 223 223 228 229 225 221 221 225 225 222 224 228 228 228 230 233 234 235 233 230 229 228 225 224 224 222 219 218 221 225 229 233 237 238
225 225 226 229 230 225 222 223 224 224 225 227 227 226 225 227 227 224 225 229 230 230 231 232 233 235 236 235 232 231 228 225 223 222 222 223 226 229 233 237 239 239
224 224 224 226 228 225 222 223 225 225 225 225 226 226 226 227 228 228 229 229 230 230 230 231 232 233 234 234 232 229 227 223 222 223 223 225 227 230 234 236 237 238
224 224 223 224 227 226 223 223 225 225 225 225 225 225 225 226 228 229 229 229 230 230 229 231 233 233 233 232 228 227 226 223 223 225 224 224 225 228 231 232 234 237
223 223 223 223 225 226 224 223 225 225 225 226 227 227 227 227 228 229 230 230 231 231 230 230 232 234 235 234 232 233 235 233 229 227 227 227 228 229 231 232 234 236
224 223 223 222 223 225 225 224 225 226 225 226 228 230 229 228 229 230 231 231 230 231 231 231 233 236 238 238 236 235 238 239 235 232 232 233 233 234 236 237 235 235
225 223 223 223 223 225 226 226 225 226 226 227 229 230 230 230 230 231 232 232 229 231 233 232 235 238 238 237 236 235 236 238 236 233 234 235 235 236 239 240 239 237
228 224 223 223 224 225 226 227 227 227 227 228 229 231 231 231 231 232 234 233 229 230 233 235 237 237 233 233 236 236 236 237 235 232 233 235 236 237 239 241 241 240
229 225 224 224 224 225 226 227 228 228 228 229 230 232 233 233 232 233 235 234 230 231 236 238 237 233 230 232 236 236 235 235 234 233 233 234 236 238 239 241 242 243
228 224 223 223 224 226 227 228 229 230 229 230 231 233 234 234 233 233 235 234 232 232 236 237 233 231 231 233 236 237 235 233 233 234 235 236 237 239 240 242 244 245
228 224 222 222 223 225 227 229 231 232 231 230 231 233 235 235 234 234 235 235 234 234 235 234 234 233 234 234 236 237 235 234 234 235 236 237 239 240 242 243 245 246
228 224 222 222 222 223 226 227 229 232 233 233 232 233 235 236 236 235 235 236 236 235 235 236 237 236 233 234 236 237 237 236 236 237 238 239 240 242 243 245 246 246
226 221 219 219 220 222 226 226 224 225 229 232 233 234 235 237 237 236 236 237 237 237 237 238 239 238 236 236 238 239 240 241 240 239 240 241 242 243 244 245 247 248